[[{"header":{"parameterUnit":"m.s-1","parameterCategory":1,"la1":30.2991,"la2":30.254,"lo1":-89.0895,"lo2":-89.0444,"dy":0.0017,"dx":0.0017,"nx":28,"ny":28,"refTime":"2025-06-08T03:00:00:Z","depth":0,"parameterNumber":2,"parameterNumberName":"U-component_of_WINDS"},"data":[0,0,0,0,0,0,0,0,0,0,0,0,0,0,0,0,0,0,0,0,0,0,0,0,0,0,0,0,0,0,0,0,0,0,0,0,0,0,0,0,0,0,0,0,0,0,0,0,0,0,0,0,0,0,0,0,0,0,5.553,5.553,0,5.5579,5.5579,5.558,5.5477,5.5473,5.547,5.5467,5.5516,5.552,5.5525,0,0,0,0,0,0,0,0,0,0,0,0,0,5.5344,5.5348,5.553,5.553,5.5531,5.5579,5.5579,5.558,5.5477,5.5473,5.5469,5.5465,5.5515,5.552,5.5525,0,0,0,0,0,0,0,0,0,0,0,0,0,5.5412,5.5349,5.5529,5.5485,5.5482,5.5579,5.5579,5.558,5.5478,5.5473,5.5468,5.5463,5.5513,5.5519,5.5526,5.5667,0,0,5.5546,5.5549,0,0,0,0,0,0,0,0,5.5408,5.5419,5.5491,5.5489,5.5485,5.5517,5.5532,5.5609,5.5479,5.548,5.5467,5.5461,5.552,5.5526,5.5546,5.5669,5.5672,5.5547,5.5551,5.5554,5.5555,0,0,0,0,0,0,0,5.5404,5.5416,5.5549,5.5492,5.5489,5.5462,5.5466,5.5546,5.5527,5.5479,5.5472,5.5479,5.5517,5.554,5.5546,5.5672,5.5546,5.5552,5.5556,5.5559,5.591,5.5915,0,0,0,0,0,0,5.5405,5.5413,5.5547,5.555,5.5433,5.547,5.5474,5.5511,5.5526,5.5524,5.5483,5.5474,5.5531,5.5539,5.5548,5.5711,5.5553,5.556,5.5564,5.5904,5.5911,5.5917,0,0,0,0,0,0,5.5401,5.5418,5.5545,5.548,5.5494,5.5478,5.5521,5.5515,5.5537,5.5529,5.5525,5.551,5.5527,5.5538,5.5637,5.5711,5.5563,5.5569,5.5898,5.5906,5.5914,5.604,0,0,0,0,0,0,5.5396,5.5417,5.5471,5.5482,5.5498,5.5635,5.5525,5.552,5.5549,5.5538,5.5553,5.5551,5.5524,5.5628,5.5644,5.5717,5.5574,5.5891,5.5902,5.5911,5.6029,5.6051,5.607,0,0,0,0,0,5.539,5.5506,5.5475,5.5492,5.5566,5.564,5.5649,5.5616,5.5556,5.5609,5.5604,5.555,5.5701,5.5639,5.5656,5.5733,5.5886,5.5899,5.591,5.602,5.6047,5.607,0,0,0,0,0,0,5.5504,5.5506,5.5472,5.5595,5.5618,5.5622,5.5689,5.5647,5.5687,5.5675,5.5632,5.5637,5.5743,5.5748,5.5679,5.5868,5.5783,5.5799,5.5861,5.5886,5.5906,5.5901,5.5579,0,0,0,0,0,5.5544,5.5605,5.5603,5.5711,5.5725,5.5706,5.5737,5.5709,5.5732,5.5741,5.5742,5.5766,5.5817,5.5853,5.5901,5.603,5.603,5.6091,5.6112,5.6129,5.6142,5.6207,5.6233,5.5956,5.5956,5.5956,0,0,5.5626,5.5635,5.5676,5.5735,5.5749,5.5812,5.5714,5.5785,5.583,5.5751,5.5843,5.5846,5.5869,5.5983,5.6033,5.599,5.6219,5.6144,5.6158,5.6162,5.6222,5.6248,5.6272,5.5964,5.5963,5.5961,0,0,5.5807,5.5821,5.5911,5.5928,5.5951,5.5937,5.5959,5.597,5.5968,5.606,5.6001,5.6054,5.6146,5.6163,5.6184,5.637,5.6321,5.6387,5.6493,5.6557,5.6579,5.6598,5.6661,5.6684,5.6401,5.6401,5.6402,0,5.5906,5.5998,5.5963,5.6037,5.6063,5.5994,5.6083,5.6101,5.614,5.6158,5.611,5.6222,5.6233,5.6348,5.6393,5.6414,5.6435,5.6384,5.6579,5.6598,5.6615,5.6674,5.6698,5.6409,5.6408,5.6407,5.6407,0,5.6116,5.6181,5.6251,5.6288,5.6323,5.6405,5.638,5.6419,5.6389,5.6379,5.6473,5.6483,5.653,5.6556,5.6528,5.6667,5.6639,5.6587,5.6499,5.665,5.6704,5.6727,5.642,5.6417,5.6415,5.6413,0,0,5.6369,5.6385,5.6411,5.6426,5.6446,5.6495,5.6573,5.6619,5.6651,5.668,5.6742,5.682,5.677,5.6794,5.6768,5.6824,5.6966,5.6764,5.6763,5.6798,5.7115,5.7152,5.7179,5.6935,5.6939,5.6943,5.7112,0,5.6545,5.6678,5.6647,5.6778,5.6836,5.6771,5.6838,5.6857,5.6851,5.6898,5.689,5.6945,5.6877,5.689,5.6944,5.6938,5.7028,5.6925,5.6989,5.6992,5.6982,5.7208,5.7248,5.7407,5.7133,5.7137,5.714,0,5.6767,5.6803,5.694,5.6948,5.6971,5.7032,5.7069,5.7116,5.7136,5.7127,5.7153,5.7114,5.7189,5.7104,5.7205,5.7135,5.716,5.7161,5.7166,5.7168,5.7072,5.7212,5.7457,5.7479,5.7174,5.7171,5.7168,0,5.6933,5.7016,5.7107,5.7122,5.7135,5.7179,5.7186,5.7201,5.723,5.7263,5.728,5.7323,5.7345,5.7378,5.7351,5.7292,5.7455,5.7369,5.7447,5.7448,5.7481,5.7479,5.773,5.7504,5.7504,5.7503,5.7503,0,5.713,5.7215,5.7181,5.7237,5.7329,5.7293,5.7385,5.7385,5.7399,5.7452,5.74,5.7451,5.7414,5.7461,5.7441,5.7525,5.7537,5.753,5.7523,5.7532,5.7533,5.7545,5.7532,5.751,5.7508,5.7507,5.7506,0,5.7329,5.731,5.7404,5.7409,5.7412,5.748,5.7482,5.7533,5.7523,5.7591,5.7605,5.7588,5.7641,5.7618,5.7675,5.7661,5.7768,5.7748,5.7761,5.7754,5.7832,5.7824,5.8097,5.8129,5.7887,5.7889,5.7891,0,5.7454,5.7517,5.7528,5.756,5.7571,5.7624,5.7652,5.7619,5.7651,5.7677,5.7724,5.7772,5.7809,5.7896,5.7888,5.793,5.7909,5.8002,5.7914,5.7921,5.7905,5.79,5.7904,5.8018,5.8021,5.8023,5.8025,0,5.7676,5.7663,5.7707,5.7747,5.7782,5.7812,5.7837,5.7866,5.7834,5.7872,5.7925,5.7954,5.801,5.8058,5.8094,5.81,5.8057,5.8053,5.8072,5.8081,5.8084,5.8079,5.7804,5.8046,5.8044,5.8042,5.8041,5.804,5.7839,5.7891,5.7906,5.7955,5.7971,5.7995,5.8042,5.8037,5.8081,5.8124,5.8102,5.8163,5.8179,5.8224,5.8236,5.8282,5.8245,5.8275,5.8281,5.8288,5.8296,5.808,5.8289,5.8288,5.8288,5.8287,5.8287,0,5.8055,5.8061,5.8107,5.8143,5.8182,5.8138,5.8164,5.8198,5.8252,5.8271,5.8308,5.8367,5.8413,5.8409,5.845,5.8488,5.8468,5.8499,5.8494,5.8496,5.8329,5.8306,5.8514,5.8514,5.8514,5.8514,5.8514,5.8514,5.8172,5.8256,5.8245,5.8336,5.8341,5.84,5.8418,5.8439,5.8453,5.8522,5.856,5.8557,5.8566,5.8607,5.8646,5.8644,5.8659,5.8697,5.8687,5.8531,5.8508,5.8486,5.8464,5.8702,5.8702,5.8849,5.885,5.8851]},{"header":{"parameterUnit":"m.s-1","parameterCategory":1,"la1":30.2991,"la2":30.254,"lo1":-89.0895,"lo2":-89.0444,"dy":0.0017,"dx":0.0017,"nx":28,"ny":28,"refTime":"2025-06-08T03:00:00:Z","depth":0,"parameterNumber":3,"parameterNumberName":"V-component_of_WINDS"},"data":[0,0,0,0,0,0,0,0,0,0,0,0,0,0,0,0,0,0,0,0,0,0,0,0,0,0,0,0,0,0,0,0,0,0,0,0,0,0,0,0,0,0,0,0,0,0,0,0,0,0,0,0,0,0,0,0,0,0,6.4818,6.482,0,6.5005,6.5008,6.501,6.5002,6.5,6.4997,6.4995,6.5181,6.5188,6.5196,0,0,0,0,0,0,0,0,0,0,0,0,0,6.4447,6.4454,6.4818,6.482,6.4823,6.5005,6.5008,6.501,6.5003,6.5,6.4996,6.4994,6.5179,6.5188,6.5196,0,0,0,0,0,0,0,0,0,0,0,0,0,6.4618,6.4456,6.4818,6.4841,6.4845,6.5005,6.5008,6.5011,6.5004,6.5,6.4996,6.4992,6.5176,6.5187,6.5198,6.5344,0,0,6.5232,6.5236,0,0,0,0,0,0,0,0,6.4609,6.4632,6.4835,6.484,6.4845,6.4977,6.4945,6.5122,6.5004,6.4943,6.4995,6.499,6.5116,6.5132,6.5175,6.5353,6.5361,6.5232,6.5239,6.5244,6.5247,0,0,0,0,0,0,0,6.4597,6.4624,6.4892,6.4838,6.4844,6.484,6.486,6.4979,6.5049,6.4948,6.4948,6.4971,6.5118,6.5165,6.518,6.5364,6.5232,6.5242,6.5249,6.5253,6.5667,6.5671,0,0,0,0,0,0,6.4581,6.4614,6.4886,6.4898,6.4715,6.485,6.4872,6.4938,6.5048,6.5061,6.4974,6.497,6.5148,6.5167,6.5186,6.5363,6.5244,6.5254,6.5261,6.5663,6.5668,6.5673,0,0,0,0,0,0,6.4573,6.4605,6.4878,6.4756,6.479,6.4861,6.4934,6.4944,6.4991,6.5067,6.5079,6.5009,6.5145,6.5171,6.5305,6.5369,6.5259,6.5269,6.5658,6.5665,6.5671,6.5718,0,0,0,0,0,0,6.4562,6.4602,6.4661,6.4757,6.4797,6.4996,6.4938,6.495,6.5011,6.5007,6.5104,6.5116,6.5144,6.5288,6.5316,6.5382,6.5278,6.5652,6.5661,6.5669,6.5711,6.5726,6.5738,0,0,0,0,0,6.4549,6.4666,6.4664,6.4696,6.4872,6.5,6.5022,6.5054,6.5016,6.5074,6.5122,6.5113,6.5358,6.5302,6.5333,6.5404,6.5648,6.5658,6.5668,6.5705,6.5723,6.5738,0,0,0,0,0,0,6.4574,6.4679,6.4678,6.483,6.4906,6.4998,6.5073,6.5072,6.5159,6.5152,6.5186,6.5208,6.5341,6.5386,6.5322,6.555,6.5498,6.5514,6.5516,6.5533,6.5546,6.5532,6.5287,0,0,0,0,0,6.4598,6.4695,6.4781,6.4907,6.4945,6.5002,6.5059,6.5077,6.5157,6.5188,6.5247,6.5323,6.5416,6.5477,6.5568,6.5718,6.5737,6.5782,6.5795,6.5806,6.5819,6.5898,6.5918,6.5705,6.5705,6.5705,0,0,6.4647,6.4716,6.4775,6.4914,6.4975,6.5072,6.5029,6.5135,6.5207,6.5204,6.5334,6.5379,6.5466,6.5607,6.5673,6.5649,6.5882,6.5818,6.5826,6.5834,6.591,6.593,6.5948,6.5712,6.571,6.5709,0,0,6.4785,6.4849,6.496,6.5022,6.5115,6.5152,6.5178,6.5271,6.5301,6.5432,6.5431,6.5516,6.5677,6.5738,6.579,6.5949,6.5943,6.5978,6.6047,6.6124,6.6141,6.6156,6.621,6.6229,6.5991,6.5991,6.5991,0,6.4834,6.4983,6.5016,6.5122,6.5181,6.5184,6.5295,6.5353,6.547,6.551,6.5482,6.5683,6.5742,6.5896,6.5935,6.5978,6.6006,6.5967,6.6136,6.6151,6.6166,6.6218,6.6238,6.5995,6.5994,6.5994,6.5994,0,6.5036,6.5139,6.5217,6.5331,6.54,6.5507,6.5554,6.5619,6.563,6.5669,6.5801,6.5871,6.5975,6.6013,6.6025,6.6168,6.615,6.6129,6.6077,6.6189,6.6238,6.6258,6.6,6.5999,6.5998,6.5997,0,0,6.5197,6.5327,6.5355,6.5405,6.5507,6.5586,6.5693,6.5795,6.5849,6.5929,6.6017,6.6153,6.6133,6.6192,6.621,6.6278,6.6396,6.6248,6.625,6.6271,6.6555,6.6569,6.6592,6.6393,6.6397,6.64,6.6547,0,6.5344,6.5535,6.5567,6.5733,6.5826,6.5829,6.5921,6.5992,6.6031,6.6114,6.6156,6.6251,6.6219,6.6254,6.6321,6.6367,6.6453,6.6357,6.6472,6.6475,6.6448,6.6618,6.6634,6.6769,6.6566,6.657,6.6572,0,6.5542,6.5628,6.5803,6.589,6.5931,6.6013,6.6108,6.6189,6.6268,6.6291,6.6356,6.6366,6.6473,6.6418,6.6564,6.6499,6.6547,6.6576,6.6582,6.6593,6.6529,6.663,6.6813,6.6833,6.6603,6.6601,6.6599,0,6.5637,6.5797,6.5922,6.5966,6.6071,6.6128,6.6175,6.625,6.6309,6.6392,6.6429,6.6523,6.6573,6.6644,6.6678,6.6635,6.6821,6.6769,6.684,6.6839,6.6878,6.6875,6.7069,6.6913,6.6913,6.6912,6.6912,0,6.5798,6.5904,6.5966,6.6043,6.6161,6.6196,6.6311,6.6355,6.6422,6.6506,6.6514,6.6591,6.6632,6.6715,6.6742,6.6857,6.688,6.69,6.6905,6.6898,6.6895,6.6929,6.6919,6.6918,6.6917,6.6916,6.6915,0,6.5924,6.5971,6.6106,6.6195,6.622,6.6302,6.6377,6.645,6.6488,6.6593,6.6619,6.6678,6.6775,6.6817,6.6936,6.6954,6.7085,6.7085,6.7059,6.706,6.7129,6.7121,6.735,6.738,6.7206,6.7207,6.7209,0,6.6022,6.6104,6.6202,6.6259,6.6307,6.6399,6.6458,6.6495,6.6556,6.6652,6.6712,6.681,6.689,6.7045,6.7097,6.7188,6.7188,6.7262,6.7201,6.7191,6.7186,6.718,6.7187,6.7272,6.7274,6.7275,6.7277,0,6.6191,6.6209,6.6296,6.6391,6.6462,6.6538,6.6612,6.6658,6.6705,6.6773,6.6874,6.6936,6.7058,6.7154,6.7247,6.7292,6.7291,6.7295,6.7316,6.7309,6.7289,6.7298,6.7087,6.729,6.7288,6.7287,6.7287,6.7286,6.6305,6.6376,6.6456,6.6551,6.6611,6.6679,6.6752,6.6799,6.6884,6.6987,6.7002,6.7109,6.7183,6.7309,6.7357,6.7439,6.742,6.7451,6.7458,6.7465,6.7468,6.7278,6.7456,6.7456,6.7456,6.7455,6.7455,0,6.6471,6.6522,6.661,6.6713,6.6788,6.6783,6.6864,6.6925,6.702,6.709,6.7169,6.7282,6.7375,6.7434,6.7526,6.758,6.7582,6.7603,6.7598,6.7608,6.7481,6.7452,6.76,6.76,6.76,6.76,6.76,6.76,6.6566,6.6687,6.6714,6.6863,6.6913,6.7018,6.7064,6.7126,6.7183,6.731,6.7387,6.7426,6.749,6.7587,6.7671,6.7686,6.7718,6.774,6.7753,6.7633,6.7618,6.7603,6.7576,6.7748,6.7748,6.7873,6.7875,6.7875]}]]